Lid_Strength_Index
13 17 18 16 15 15 15 16 16 14 13 14 15 15 14 13 15 15 15 15 14 13 11 11 10 10 3 5 6 5 7 9 9 10 11 11 11 10 11 10 9 9 9 9
15 18 14 14 14 15 16 18 17 15 13 14 15 15 13 13 13 12 13 13 13 12 11 11 11 9 4 6 6 7 8 9 9 9 10 11 10 10 10 10 9 9 9 9
15 14 13 14 15 16 16 17 18 17 15 15 16 15 14 12 12 12 11 11 11 12 11 11 11 9 5 6 8 8 9 9 9 11 12 11 10 10 11 10 10 10 10 10
13 12 13 14 15 15 17 14 14 15 17 20 16 20 16 14 12 12 11 11 11 11 11 10 11 10 6 6 7 9 10 11 10 11 11 11 11 11 11 11 11 10 10 10
13 12 13 14 14 13 14 14 14 15 17 19 18 21 17 14 14 13 12 11 11 10 11 11 11 10 7 9 8 9 11 11 11 10 10 10 10 11 11 11 11 11 11 11
11 9 10 11 11 12 11 13 13 15 19 23 17 18 17 15 14 13 12 12 11 12 12 11 11 10 10 11 11 10 11 12 11 9 10 10 10 11 11 11 11 12 12 12
12 12 9 10 13 11 11 14 19 20 21 21 17 19 16 14 14 13 12 12 12 12 13 13 12 11 12 11 11 10 11 12 11 11 10 10 10 10 11 11 12 13 13 13
16 17 11 10 12 13 13 14 18 23 22 21 18 19 16 14 12 12 12 11 12 13 12 13 12 11 12 11 11 11 11 11 10 10 10 10 10 11 11 12 12 12 13 13
15 15 9 9 10 11 13 16 13 17 16 19 18 17 14 13 14 14 14 14 14 14 13 12 12 12 12 12 11 11 11 11 11 10 11 11 11 11 12 12 12 13 13 13
12 17 10 10 9 10 11 10 16 16 21 22 19 19 17 16 15 14 15 15 15 14 13 13 12 12 11 11 11 11 11 11 12 11 11 11 12 12 12 13 13 13 13 13
11 14 14 11 13 13 13 14 14 14 16 21 22 20 15 16 15 15 15 14 15 14 14 13 13 12 12 11 11 12 11 11 11 12 12 12 12 12 12 13 13 13 13 13
12 13 17 14 11 10 10 12 12 17 18 16 17 17 12 11 12 12 12 14 14 13 13 13 12 12 11 11 11 11 11 11 11 12 12 12 12 12 13 13 13 13 13 13
11 18 20 19 15 13 15 15 13 14 14 17 19 18 10 11 12 11 12 11 13 13 13 13 13 13 12 12 12 12 12 12 12 12 12 12 13 13 13 13 13 13 13 13
10 15 17 21 18 15 17 15 15 16 17 16 16 15 12 12 12 12 12 11 11 13 13 13 13 13 12 12 12 12 12 11 12 12 12 12 12 12 12 13 13 13 13 13
13 23 16 16 13 15 14 16 16 17 17 17 16 16 13 12 12 11 10 10 10 11 12 12 13 13 12 12 12 12 11 11 11 12 12 12 12 12 12 13 13 13 12 13
12 19 17 19 16 14 15 14 15 14 13 14 13 15 13 12 13 11 10 10 11 11 11 11 11 12 13 11 12 11 11 11 11 11 12 12 11 12 13 13 12 12 13 14
15 15 23 22 16 19 22 17 14 13 12 12 15 14 13 13 13 13 13 12 12 12 11 12 11 11 12 11 10 11 11 11 11 11 12 11 12 12 12 12 12 13 13 14
15 16 15 20 23 26 16 12 12 13 13 12 13 12 13 14 12 12 12 12 12 12 12 11 11 11 11 11 10 11 11 11 12 12 12 11 12 12 11 12 12 13 14 14
10 12 16 20 22 16 14 13 13 14 14 11 13 13 12 12 12 11 11 11 11 12 11 11 10 10 11 11 10 11 12 11 12 12 13 12 11 11 12 12 13 13 14 14
12 12 14 19 23 23 15 10 9 10 16 11 11 12 13 13 16 14 10 9 11 11 11 11 11 10 10 10 10 10 10 11 11 11 11 10 10 11 11 11 12 13 13 13
23 27 23 23 27 21 11 10 9 17 15 10 9 11 12 13 12 11 10 10 10 10 11 11 11 11 11 10 10 10 10 11 10 10 10 10 10 10 11 12 13 13 14 13
19 24 21 29 30 24 10 10 13 11 10 9 9 9 11 11 10 10 10 10 10 10 11 10 10 11 11 11 10 10 11 10 11 10 10 10 10 10 12 13 13 13 13 13
19 15 18 17 16 9 8 8 7 7 8 9 9 9 9 10 10 11 11 10 10 10 10 10 11 11 10 11 10 10 9 10 10 10 10 10 11 12 12 13 12 12 12 13
13 10 13 12 11 9 8 7 7 7 8 7 7 8 9 9 9 9 9 10 10 10 9 10 10 10 10 12 11 10 12 11 10 10 10 10 11 12 12 12 12 12 12 14
11 11 12 13 10 9 8 7 7 6 7 7 7 7 8 8 8 8 8 8 9 9 8 9 10 10 10 10 12 12 11 11 10 10 11 12 11 12 12 12 12 12 12 11
10 11 13 14 9 9 9 7 6 7 7 6 7 7 6 6 7 7 8 8 8 8 8 9 10 11 11 11 12 13 12 10 10 11 11 11 11 11 11 11 13 9 10 9